Burlington, WA

5:53 PM PDT on July 20, 2017 (GMT -0700)
Skagit Regional

Weather History for KBVS - July, 2013

Change the Weather History Date:

Thursday, July 11, 2013

  Actual Average Record
Temperature  
Mean Temperature 60 °F -  
Max Temperature 66 °F 69 °F 86 °F (2007)
Min Temperature 53 °F 51 °F 39 °F (1973)
Degree Days  
Heating Degree Days 6    
Growing Degree Days 10 (Base 50)    
Moisture  
Dew Point 51 °F    
Average Humidity 76    
Maximum Humidity 100    
Minimum Humidity 49    
Precipitation  
Precipitation 0.00 in - - ()
Sea Level Pressure  
Sea Level Pressure 30.06 in    
Wind  
Wind Speed 7 mph (SSW)    
Max Wind Speed 14 mph    
Max Gust Speed 22 mph    
Visibility 10 miles    
Events      
Averages and records for this station are not official NWS values.
T = Trace of Precipitation, MM = Missing Value Source: NWS Daily Summary

Daily Weather History Graph

Daily Weather History Graph

Search for Another Location

Airport or City:

Trip Planner

Search our weather history database for the weather conditions in past years. The results will help you decide how hot, cold, wet, or windy it might be!

Date:

Astronomy

Jul. 11, 2013 Rise Set
Actual Time 5:20 AM PDT 9:09 PM PDT
Civil Twilight 4:39 AM PDT 9:49 PM PDT
Nautical Twilight 3:44 AM PDT 10:45 PM PDT
Astronomical Twilight 2:19 AM PDT 12:07 AM PDT
Moon 9:04 AM PDT (7/11) 10:29 PM PDT (7/11)
Length of Visible Light 17h 10m
Length of Day
15h 49m
Waxing Crescent, 11% of the Moon is Illuminated
Jul 11
Waxing Crescent
Jul 15
First Quarter
Jul 22
Full
Jul 29
Last Quarter
Aug 6
New

Hourly Weather History & Observations

Time (PDT) Temp. Dew Point Humidity Pressure Visibility Wind Dir Wind Speed Gust Speed Precip Events Conditions
12:15 AM 53.6 °F 51.8 °F 94% 30.01 in 10.0 mi SSW 4.6 mph - 0.00 in   Scattered Clouds
12:35 AM 53.6 °F 53.6 °F 100% 30.01 in 10.0 mi SSW 6.9 mph - 0.00 in   Scattered Clouds
12:55 AM 55.4 °F 53.6 °F 94% 30.02 in 10.0 mi South 5.8 mph - 0.00 in   Mostly Cloudy
1:15 AM 55.4 °F 53.6 °F 94% 30.02 in 10.0 mi SSW 11.5 mph 17.3 mph 0.00 in   Overcast
1:35 AM 55.4 °F 51.8 °F 88% 30.02 in 10.0 mi WSW 4.6 mph - 0.00 in   Overcast
1:55 AM 55.4 °F 51.8 °F 88% 30.02 in 10.0 mi South 4.6 mph - 0.00 in   Overcast
2:15 AM 55.4 °F 51.8 °F 88% 30.02 in 9.0 mi SE 3.5 mph - 0.00 in   Overcast
2:35 AM 55.4 °F 53.6 °F 94% 30.03 in 10.0 mi SW 4.6 mph - 0.00 in   Overcast
2:55 AM 55.4 °F 53.6 °F 94% 30.02 in 7.0 mi WSW 3.5 mph - 0.00 in   Overcast
3:15 AM 55.4 °F 53.6 °F 94% 30.03 in 10.0 mi SSW 4.6 mph - 0.00 in   Overcast
3:35 AM 55.4 °F 53.6 °F 94% 30.03 in 10.0 mi SSW 6.9 mph - 0.00 in   Overcast
3:55 AM 55.4 °F 53.6 °F 94% 30.03 in 10.0 mi South 6.9 mph - 0.00 in   Overcast
4:15 AM 55.4 °F 53.6 °F 94% 30.04 in 10.0 mi South 5.8 mph - 0.00 in   Overcast
4:35 AM 55.4 °F 53.6 °F 94% 30.04 in 10.0 mi SSW 5.8 mph - 0.00 in   Mostly Cloudy
4:55 AM 55.4 °F 53.6 °F 94% 30.05 in 10.0 mi South 3.5 mph - 0.00 in   Overcast
5:15 AM 53.6 °F 53.6 °F 100% 30.05 in 10.0 mi Calm Calm - 0.00 in   Mostly Cloudy
5:35 AM 53.6 °F 53.6 °F 100% 30.05 in 10.0 mi Calm Calm - 0.00 in   Scattered Clouds
5:55 AM 53.6 °F 53.6 °F 100% 30.05 in 10.0 mi South 5.8 mph - 0.00 in   Mostly Cloudy
6:15 AM 53.6 °F 53.6 °F 100% 30.06 in 9.0 mi Calm Calm - 0.00 in   Overcast
6:35 AM 55.4 °F 53.6 °F 94% 30.06 in 10.0 mi South 3.5 mph - 0.00 in   Overcast
6:55 AM 55.4 °F 55.4 °F 100% 30.07 in 10.0 mi South 4.6 mph - 0.00 in   Scattered Clouds
7:15 AM 55.4 °F 55.4 °F 100% 30.08 in 10.0 mi South 5.8 mph - 0.00 in   Partly Cloudy
7:35 AM 57.2 °F 53.6 °F 88% 30.08 in 9.0 mi SSE 8.1 mph - 0.00 in   Mostly Cloudy
7:55 AM 57.2 °F 53.6 °F 88% 30.08 in 10.0 mi SSW 6.9 mph - 0.00 in   Overcast
8:15 AM 57.2 °F 55.4 °F 94% 30.08 in 4.0 mi SSW 9.2 mph - 0.00 in   Overcast
8:35 AM 60.8 °F 53.6 °F 77% 30.08 in 10.0 mi SSE 10.4 mph 16.1 mph 0.00 in   Overcast
8:55 AM 60.8 °F 53.6 °F 77% 30.08 in 10.0 mi SSW 12.7 mph 18.4 mph 0.00 in   Mostly Cloudy
9:15 AM 60.8 °F 51.8 °F 72% 30.08 in 9.0 mi SW 11.5 mph - 0.00 in   Partly Cloudy
9:35 AM 60.8 °F 53.6 °F 77% 30.09 in 10.0 mi SW 11.5 mph 18.4 mph 0.00 in   Scattered Clouds
9:55 AM 60.8 °F 51.8 °F 72% 30.09 in 10.0 mi SW 8.1 mph 18.4 mph 0.00 in   Mostly Cloudy
10:15 AM 60.8 °F 51.8 °F 72% 30.09 in 10.0 mi SSW 10.4 mph - 0.00 in   Overcast
10:35 AM 60.8 °F 51.8 °F 72% 30.09 in 10.0 mi SW 12.7 mph 17.3 mph 0.00 in   Mostly Cloudy
10:55 AM 60.8 °F 51.8 °F 72% 30.09 in 10.0 mi SSW 13.8 mph 19.6 mph 0.00 in   Partly Cloudy
11:15 AM 60.8 °F 50.0 °F 68% 30.10 in 10.0 mi SSW 12.7 mph 19.6 mph 0.00 in   Clear
11:35 AM 62.6 °F 51.8 °F 68% 30.10 in 10.0 mi SSW 8.1 mph 18.4 mph 0.00 in   Scattered Clouds
11:55 AM 60.8 °F 50.0 °F 68% 30.10 in 10.0 mi SSW 4.6 mph - 0.00 in   Mostly Cloudy
12:15 PM 62.6 °F 51.8 °F 68% 30.10 in 10.0 mi SSW 9.2 mph - 0.00 in   Overcast
12:35 PM 62.6 °F 51.8 °F 68% 30.10 in 10.0 mi SSW 12.7 mph 17.3 mph 0.00 in   Overcast
12:55 PM 62.6 °F 51.8 °F 68% 30.10 in 2.0 mi SSW 6.9 mph - 0.00 in   Overcast
1:15 PM 64.4 °F 51.8 °F 64% 30.10 in 10.0 mi South 9.2 mph - 0.00 in   Overcast
1:35 PM 62.6 °F 51.8 °F 68% 30.10 in 9.0 mi SW 9.2 mph - 0.00 in   Mostly Cloudy
1:55 PM 64.4 °F 48.2 °F 56% 30.09 in 10.0 mi South 12.7 mph 21.9 mph 0.00 in   Scattered Clouds
2:15 PM 66.2 °F 48.2 °F 52% 30.09 in 10.0 mi WSW 9.2 mph 19.6 mph 0.00 in   Clear
2:35 PM 66.2 °F 50.0 °F 56% 30.09 in 10.0 mi SSW 11.5 mph 18.4 mph 0.00 in   Partly Cloudy
2:55 PM 66.2 °F 48.2 °F 52% 30.09 in 10.0 mi SW 10.4 mph 18.4 mph 0.00 in   Clear
3:15 PM 66.2 °F 48.2 °F 52% 30.08 in 10.0 mi SSW 10.4 mph 17.3 mph 0.00 in   Clear
3:35 PM 66.2 °F 50.0 °F 56% 30.08 in 10.0 mi SSW 12.7 mph 16.1 mph 0.00 in   Clear
3:55 PM 66.2 °F 48.2 °F 52% 30.08 in 10.0 mi SSW 12.7 mph 18.4 mph 0.00 in   Clear
4:15 PM 66.2 °F 48.2 °F 52% 30.08 in 10.0 mi SSW 11.5 mph 17.3 mph 0.00 in   Clear
4:35 PM 66.2 °F 48.2 °F 52% 30.07 in 8.0 mi SSW 11.5 mph - 0.00 in   Clear
4:55 PM 66.2 °F 48.2 °F 52% 30.07 in 10.0 mi SW 6.9 mph 16.1 mph 0.00 in   Clear
5:15 PM 66.2 °F 48.2 °F 52% 30.06 in 10.0 mi SW 11.5 mph 17.3 mph 0.00 in   Clear
5:35 PM 66.2 °F 46.4 °F 49% 30.06 in 7.0 mi SW 9.2 mph - 0.00 in   Clear
5:55 PM 66.2 °F 46.4 °F 49% 30.06 in 10.0 mi SW 10.4 mph - 0.00 in   Clear
6:15 PM 64.4 °F 48.2 °F 56% 30.06 in 10.0 mi SW 8.1 mph - 0.00 in   Clear
6:35 PM 64.4 °F 48.2 °F 56% 30.05 in 10.0 mi SW 8.1 mph - 0.00 in   Clear
6:55 PM 64.4 °F 48.2 °F 56% 30.05 in 10.0 mi WSW 4.6 mph - 0.00 in   Clear
7:15 PM 62.6 °F 48.2 °F 59% 30.05 in 4.0 mi WSW 4.6 mph - 0.00 in   Clear
7:35 PM 62.6 °F 48.2 °F 59% 30.05 in 10.0 mi SSW 6.9 mph - 0.00 in   Clear
7:55 PM 62.6 °F 48.2 °F 59% 30.04 in 10.0 mi SW 5.8 mph - 0.00 in   Clear
8:15 PM 60.8 °F 48.2 °F 63% 30.04 in 10.0 mi SW 5.8 mph - 0.00 in   Clear
8:35 PM 60.8 °F 48.2 °F 63% 30.04 in 10.0 mi WSW 4.6 mph - 0.00 in   Clear
8:55 PM 59.0 °F 48.2 °F 67% 30.04 in 10.0 mi SW 4.6 mph - 0.00 in   Clear
9:15 PM 57.2 °F 46.4 °F 67% 30.04 in 10.0 mi SW 8.1 mph - 0.00 in   Clear
9:35 PM 57.2 °F 48.2 °F 72% 30.05 in 10.0 mi SW 9.2 mph - 0.00 in   Clear
9:55 PM 55.4 °F 48.2 °F 77% 30.05 in 10.0 mi SW 9.2 mph - 0.00 in   Clear
10:15 PM 55.4 °F 48.2 °F 77% 30.05 in 10.0 mi Calm Calm - 0.00 in   Clear
10:35 PM 53.6 °F 48.2 °F 82% 30.05 in 10.0 mi ESE 5.8 mph - 0.00 in   Clear
10:55 PM 53.6 °F 48.2 °F 82% 30.05 in 10.0 mi SW 5.8 mph - 0.00 in   Clear
11:15 PM 53.6 °F 50.0 °F 88% 30.05 in 10.0 mi Calm Calm - 0.00 in   Clear
11:35 PM 53.6 °F 51.8 °F 94% 30.05 in 10.0 mi South 6.9 mph - 0.00 in   Clear
11:55 PM 53.6 °F 51.8 °F 94% 30.05 in 10.0 mi SSW 4.6 mph - 0.00 in   Clear